Volver al catálogo

DMSP 5D-2 F13 DEB

ActivoSSO
NORAD 40681·DEBRIS·🇺🇸 United States

Lanzado Mar 24, 1995 desde Vandenberg Space Force Base

Loading…

Próximos Pases (próximas 24 horas)

TLE

ActualizadoSource: Space-Track

Época: Sep 13, 2026, 08:04 UTC

1 40681U 95015FV  26256.33639885  .00002339  00000-0  78865-3 0  9999
2 40681  98.6967 293.4692 0006245 148.2398 211.9166 14.37966663593388

Sigue DMSP 5D-2 F13 DEB en tiempo real con AllMySat

Download on the App Store